Regional Weather Roundup
Issued by NWS

Home | Current Version | Previous Version | Text Only | Print | Product List | Glossary On
Versions: 1 2 3 4 5 6 7 8 9 10 11 12 13 14 15 16 17 18 19 20 21 22 23 24 25 26 27 28 29 30 31 32 33 34 35 36 37 38 39 40 41 42 43 44 45 46 47 48 49 50
000
ASUS43 KDMX 190907
RWRIA

WEATHER ROUNDUP FOR IOWA
NATIONAL WEATHER SERVICE DES MOINES IA
400 AM CDT FRI SEP 19 2014

NOTE: "FAIR" INDICATES FEW OR NO CLOUDS BELOW 12,000 FEET WITH NO
SIGNIFICANT WEATHER AND/OR OBSTRUCTIONS TO VISIBILITY.

* - THESE STATIONS ARE NOT NWS STATIONS...THUS NOT UNDER NWS
QUALITY CONTROL.  THEY ALSO DO NOT REPORT WEATHER SUCH
AS PRECIPITATION OR FOG.

IAZ001>003-012>014-020>022-031>034-043>046-191000-
   NORTHWEST IOWA

CITY           SKY/WX    TMP DP  RH WIND       PRES   REMARKS
CARROLL *      CLOUDY    57  55  94 S7        29.98F
CHEROKEE *     MOCLDY    59  59 100 S10       29.93F
DENISON *      CLOUDY    61  59  94 VRB8G18   29.95F
LE MARS *        N/A     61  59  94 S15G23    29.91F
ORANGE CITY *  CLOUDY    63  57  82 S14       29.90F
SHELDON *      CLOUDY    59  57  94 S15G25    29.90F
SIOUX CITY     CLOUDY    60  59  96 SE7G16    29.91F
SPENCER        PTCLDY    58  55  90 S13       29.94F
STORM LAKE *   CLEAR     57  57 100 S13       29.94F FOG
$$

IAZ055>058-069>071-079>083-090>094-191000-
   SOUTHWEST IOWA

CITY           SKY/WX    TMP DP  RH WIND       PRES   REMARKS
ATLANTIC *     CLEAR     61  59  94 SW7       29.98F
AUDUBON *      MOCLDY    59  54  82 SE5       30.00S
CLARINDA *     CLEAR     59  59 100 VRB5      30.01F FOG
COUNCIL BLFS * CLOUDY    61  61 100 S9        29.96S FOG
CRESTON *      CLEAR     55  55 100 SE6       30.02S
HARLAN  *      CLOUDY    59  59 100 S8        30.01F
LAMONI         CLEAR     57  55  93 SE6       30.03F
SHENANDOAH *     N/A     59  59 100 SE6       29.99F FOG
$$

IAZ047>049-059>061-072>074-084-191000-
   CENTRAL IOWA

CITY           SKY/WX    TMP DP  RH WIND       PRES   REMARKS
AMES           CLEAR     53  52  96 S3        30.03S
ANKENY *       CLEAR     54  54 100 CALM      30.03S
CHARITON *     CLOUDY    55  54  94 S7        30.04S
DES MOINES     PTCLDY    57  54  89 S7        30.03S
GRINNELL*      CLEAR     54  50  87 SE6       30.06R
KNOXVILLE *    PTCLDY    55  52  88 SE7       30.03S
MARSHALLTOWN   PTCLDY    53  50  89 SE7       30.04S
PELLA *        CLEAR     55  52  88 S5        30.06R
PERRY *          N/A     55  54  94 SE6       30.01F FOG
$$

IAZ004>006-015-016-023>025-035-036-191000-
   NORTH CENTRAL IOWA

CITY           SKY/WX    TMP DP  RH WIND       PRES   REMARKS
ALGONA *       CLEAR     55  54  94 S10G17    29.98F
CLARION *        N/A     54  54 100 SE8       30.01S
ESTHERVILLE    PTCLDY    56  54  93 S15       29.94F
FORT DODGE *   CLEAR     59  54  82 S10       30.00F
MASON CITY     PTCLDY    54  51  90 S12       30.03S
FOREST CITY *  CLEAR     54  54 100 SE8       30.00F
IOWA FALLS *     N/A     54  52  94 SE7       30.04S
$$

IAZ007>011-017>019-026>030-037>042-050>054-066-191000-
   NORTHEAST IOWA

CITY           SKY/WX    TMP DP  RH WIND       PRES   REMARKS
CEDAR RAPIDS   CLEAR     52  50  93 S5        30.07F
CHARLES CITY * PTCLDY    54  50  87 SE8G14    30.05S
CLINTON *      PTCLDY    52  48  87 E7        30.14S
DECORAH *      CLEAR     54  52  94 SE8       30.05F
DUBUQUE        CLEAR     52  51  97 SE12      30.10F FOG
MONTICELLO *   CLEAR     54  54 100 SE9       30.09S FOG
OELWEIN *      CLEAR     52  50  93 SE9       30.07F
WATERLOO       PTCLDY    54  50  86 SE8       30.05F
$$

IAZ064-065-067-068-078-191000-
   EAST CENTRAL IOWA

CITY           SKY/WX    TMP DP  RH WIND       PRES   REMARKS
DAVENPORT      CLEAR     53  50  89 SE9       30.11S FOG
IOWA CITY      CLEAR     53  50  89 E5        30.09F
MT. PLEASANT * CLEAR     52  48  87 E6        30.08S
MUSCATINE *    CLEAR     48  46  93 CALM      30.10S
QUAD CITIES    CLEAR     49  47  93 E6        30.10F FOG
$$

IAZ062-063-075>077-085>089-095>099-191000-
   SOUTHEAST IOWA

CITY           SKY/WX    TMP DP  RH WIND       PRES   REMARKS
BURLINGTON     CLEAR     54  49  83 SE5       30.08F
FAIRFIELD *    CLEAR     52  48  87 SE7       30.07S
FORT MADISON * CLEAR     54  50  87 CALM      30.09S
KEOKUK *       CLEAR     54  50  87 E7        30.07S
OSKALOOSA *      N/A     52  50  93 SE7       30.06S
CENTERVILLE *  CLEAR     54  54 100 SE6       30.06F
OTTUMWA        CLEAR     53  50  89 SE5       30.05F
WASHINGTON *   CLEAR     48  48 100 SE7       30.07F
$$

ABBREVIATIONS USED IN REMARKS
   TC - TEMPERATURES IN CELSIUS
  WCI - WIND CHILL INDEX
   HX - HEAT INDEX
  VSB - VISIBILITY
$$




USA.gov is the U.S. government's official web portal to all federal, state and local government web resources and services.